Regional Weather Roundup
Issued by NWS

Home | Current Version | Previous Version | Graphics & Text | Print | Product List | Glossary On
Versions: 1 2 3 4 5 6 7 8 9 10 11 12 13 14 15 16 17 18 19 20 21 22 23 24 25 26 27 28 29 30 31 32 33 34 35 36 37 38 39 40 41 42 43 44 45 46 47 48 49 50
991
ASUS43 KDMX 281401
RWRIA

WEATHER ROUNDUP FOR IOWA
NATIONAL WEATHER SERVICE DES MOINES IA
900 AM CDT SUN MAY 28 2017

NOTE: "FAIR" INDICATES FEW OR NO CLOUDS BELOW 12,000 FEET WITH NO
SIGNIFICANT WEATHER AND/OR OBSTRUCTIONS TO VISIBILITY.

* - THESE STATIONS ARE NOT NWS STATIONS...THUS NOT UNDER NWS
QUALITY CONTROL.  THEY ALSO DO NOT REPORT WEATHER SUCH
AS PRECIPITATION OR FOG.

IAZ001>003-012>014-020>022-031>034-043>046-281500-
   NORTHWEST IOWA

CITY           SKY/WX    TMP DP  RH WIND       PRES   REMARKS
CARROLL *      SUNNY     66  55  68 NW13      29.88R
CHEROKEE *     SUNNY     62  53  71 NW5       29.87S
DENISON *      SUNNY     63  52  67 VRB6      29.91R
LE MARS *      SUNNY     63  50  63 MISG      29.89S
ORANGE CITY *  SUNNY     61  54  77 W8        29.88S
SHELDON *      SUNNY     61  48  63 W6        29.86S
SIOUX CITY     SUNNY     64  51  62 NW7       29.90R
SPENCER        SUNNY     62  51  67 NW7       29.86R
STORM LAKE *   SUNNY     63  50  63 NW12      29.87R
$$

IAZ055>058-069>071-079>083-090>094-281500-
   SOUTHWEST IOWA

CITY           SKY/WX    TMP DP  RH WIND       PRES   REMARKS
ATLANTIC *     SUNNY     63  54  72 NW14      29.89R
AUDUBON *      SUNNY     63  55  77 NW7       29.90R
CLARINDA *     SUNNY     64  57  77 W5G14     29.93R
COUNCIL BLFS * SUNNY     63  54  72 NW10      29.92R
CRESTON *      SUNNY     64  57  77 W10       29.90S
HARLAN  *      SUNNY     63  55  77 NW9       29.93R
LAMONI         SUNNY     65  55  70 NW10      29.89R
RED OAK *      SUNNY     64  54  68 NW8       29.91R
SHENANDOAH *   SUNNY     64  55  72 NW7       29.92R
$$

IAZ047>049-059>061-072>074-084-281500-
   CENTRAL IOWA

CITY           SKY/WX    TMP DP  RH WIND       PRES   REMARKS
AMES           SUNNY     63  55  75 W13       29.85R
ANKENY *       SUNNY     64  55  72 W9        29.87R
BOONE *        SUNNY     63 N/A N/A W13       29.85R
CHARITON *     SUNNY     64  55  72 NW12      29.87R
DES MOINES     MOSUNNY   66  54  65 W8        29.86R
GRINNELL*      SUNNY     64  56  76 W9        29.85S
KNOXVILLE *    SUNNY     64  54  68 NW13      29.85R
MARSHALLTOWN   SUNNY     65  57  75 W7        29.83R
NEWTON *       SUNNY     63  55  77 W7        29.84S
PELLA *        SUNNY     65  55  69 NW8       29.87R
PERRY *          N/A     63  56  79 W15       29.86S
$$

IAZ004>006-015-016-023>025-035-036-281500-
   NORTH CENTRAL IOWA

CITY           SKY/WX    TMP DP  RH WIND       PRES   REMARKS
ALGONA *       SUNNY     64  46  52 NW13      29.84S
CLARION *      SUNNY     63  52  67 NW13G20   29.85R
ESTHERVILLE    SUNNY     62  47  57 NW14      29.83S
FORT DODGE *   SUNNY     63  54  72 NW10      29.87R
MASON CITY     SUNNY     63  50  62 NW15      29.83S
FOREST CITY *    N/A     63  43  48 NW12G18   29.83R
WEBSTER CITY * SUNNY     63  54  72 NW15      29.84R
IOWA FALLS *     N/A     64  54  71 W15G21    29.85R
$$

IAZ007>011-017>019-026>030-037>042-050>054-066-281500-
   NORTHEAST IOWA

CITY           SKY/WX    TMP DP  RH WIND       PRES   REMARKS
CEDAR RAPIDS   SUNNY     64  57  78 NW12      29.82R
CHARLES CITY * SUNNY     64  55  72 W17G23    29.81S
DECORAH *      SUNNY     64  54  68 W7        29.78S
DUBUQUE        PTSUNNY   62  55  77 NW5       29.80S
MONTICELLO *   MOSUNNY   64  55  72 NW7       29.81S
OELWEIN *      SUNNY     64  57  77 W10       29.82R
WATERLOO       SUNNY     66  55  67 W7        29.81R
$$

IAZ064-065-067-068-078-281500-
   EAST CENTRAL IOWA

CITY           SKY/WX    TMP DP  RH WIND       PRES   REMARKS
DAVENPORT      SUNNY     65  59  81 NW9       29.81R
IOWA CITY      CLOUDY    65  56  72 NW6       29.84R
MT. PLEASANT * SUNNY     66  54  64 NW7       29.84S
MUSCATINE *    SUNNY     66  55  68 NW9       29.82S
QUAD CITIES    PTSUNNY   67  59  75 W8        29.80R
$$

IAZ062-063-075>077-085>089-095>099-281500-
   SOUTHEAST IOWA

CITY           SKY/WX    TMP DP  RH WIND       PRES   REMARKS
BURLINGTON     MOSUNNY   66  57  72 N10       29.81S
FAIRFIELD *    SUNNY     64  55  72 W9        29.84S
FORT MADISON * MOSUNNY   66  57  72 NW8       29.83S
KEOKUK *       MOSUNNY   64  57  77 NW8       29.82S
OSKALOOSA *      N/A     65  55  70 NW10      29.85S
OTTUMWA        SUNNY     66  58  75 NW10      29.85R
WASHINGTON *   MOSUNNY   66  57  72 NW9G15    29.85R
$$

ABBREVIATIONS USED IN REMARKS
   TC - TEMPERATURES IN CELSIUS
  WCI - WIND CHILL INDEX
   HX - HEAT INDEX
  VSB - VISIBILITY
$$





USA.gov is the U.S. government's official web portal to all federal, state and local government web resources and services.